Terminal Aerodrome Forecast
Issued by NWS Rapid City, SD

Home | Current Version | Previous Version | Text Only | Print | Product List | Glossary Off
Versions: 1 2 3 4 5 6 7 8 9 10 11 12 13

000
FTUS43 KUNR 270228 AAA
TAFRAP
TAF AMD
KRAP 270228Z 2702/2724 03013KT P6SM BKN100
      TEMPO 2703/2706 5SM -TSRA BKN060CB
     FM270700 34013KT P6SM BKN100
     FM271500 35016KT P6SM -SHRA SCT015 BKN080=

USA.gov is the U.S. government's official web portal to all federal, state and local government web resources and services.